Time,TemperatureF,DewpointF,PressureIn,WindDirection,WindDirectionDegrees,WindSpeedMPH,WindSpeedGustMPH,Humidity,HourlyPrecipIn,Conditions,Clouds,dailyrainin,SolarRadiationWatts/m^2,SoftwareType,DateUTC
2013-08-08 00:00:00,61.0,59.0,-100.00,NW,315,0.0,-999.0,89,-99.99,,,-99.99,0.000000,,2013-08-08 04:00:00,
2013-08-08 00:44:00,61.0,59.0,-100.00,NW,315,0.0,-999.0,89,-99.99,,,-99.99,0.000000,,2013-08-08 04:44:00,
2013-08-08 00:53:00,61.0,59.0,-100.00,NW,315,0.0,-999.0,89,-99.99,,,-99.99,0.000000,,2013-08-08 04:53:00,
2013-08-08 01:00:00,60.0,58.0,-100.00,West,270,0.0,-999.0,91,-99.99,,,-99.99,0.000000,,2013-08-08 05:00:00,
2013-08-08 01:43:00,60.0,58.0,-100.00,West,270,0.0,-999.0,91,-99.99,,,-99.99,0.000000,,2013-08-08 05:43:00,
2013-08-08 01:52:00,60.0,58.0,-100.00,West,270,0.0,-999.0,91,-99.99,,,-99.99,0.000000,,2013-08-08 05:52:00,
2013-08-08 02:00:00,60.0,58.0,-100.00,NE,45,0.0,-999.0,91,-99.99,,,-99.99,0.000000,,2013-08-08 06:00:00,
2013-08-08 02:43:00,60.0,58.0,-100.00,NE,45,0.0,-999.0,91,-99.99,,,-99.99,0.000000,,2013-08-08 06:43:00,
2013-08-08 02:52:00,60.0,58.0,-100.00,NE,45,0.0,-999.0,91,-99.99,,,-99.99,0.000000,,2013-08-08 06:52:00,
2013-08-08 03:00:00,60.0,57.0,-100.00,NE,45,2.0,-999.0,91,-99.99,,,-99.99,0.000000,,2013-08-08 07:00:00,
2013-08-08 03:32:00,60.0,57.0,-100.00,NE,45,2.0,-999.0,91,-99.99,,,-99.99,0.000000,,2013-08-08 07:32:00,
2013-08-08 03:43:00,60.0,57.0,-100.00,NE,45,2.0,-999.0,91,-99.99,,,-99.99,0.000000,,2013-08-08 07:43:00,
2013-08-08 03:53:00,60.0,57.0,-100.00,NE,45,2.0,-999.0,91,-99.99,,,-99.99,0.000000,,2013-08-08 07:53:00,
2013-08-08 04:00:00,58.0,56.0,-100.00,NNE,22,0.0,-999.0,91,-99.99,,,-99.99,0.000000,,2013-08-08 08:00:00,
2013-08-08 04:32:00,58.0,56.0,-100.00,NNE,22,0.0,-999.0,91,-99.99,,,-99.99,0.000000,,2013-08-08 08:32:00,
2013-08-08 04:43:00,58.0,56.0,-100.00,NNE,22,0.0,-999.0,91,-99.99,,,-99.99,0.000000,,2013-08-08 08:43:00,
2013-08-08 04:53:00,58.0,56.0,-100.00,NNE,22,0.0,-999.0,91,-99.99,,,-99.99,0.000000,,2013-08-08 08:53:00,
2013-08-08 05:00:00,57.0,55.0,-100.00,ENE,67,1.0,-999.0,93,-99.99,,,-99.99,0.000000,,2013-08-08 09:00:00,
2013-08-08 05:43:00,57.0,55.0,-100.00,ENE,67,1.0,-999.0,93,-99.99,,,-99.99,0.000000,,2013-08-08 09:43:00,
2013-08-08 05:53:00,57.0,55.0,-100.00,ENE,67,1.0,-999.0,93,-99.99,,,-99.99,0.000000,,2013-08-08 09:53:00,
2013-08-08 06:00:00,56.0,54.0,-100.00,NE,45,3.0,-999.0,92,-99.99,,,-99.99,0.000000,,2013-08-08 10:00:00,
2013-08-08 06:43:00,56.0,54.0,-100.00,NE,45,3.0,-999.0,92,-99.99,,,-99.99,0.000000,,2013-08-08 10:43:00,
2013-08-08 06:52:00,56.0,54.0,-100.00,NE,45,3.0,-999.0,92,-99.99,,,-99.99,0.000000,,2013-08-08 10:52:00,
2013-08-08 07:00:00,55.0,53.0,-100.00,NE,45,3.0,-999.0,92,-99.99,,,-99.99,3.480000,,2013-08-08 11:00:00,
2013-08-08 07:43:00,55.0,53.0,-100.00,NE,45,3.0,-999.0,92,-99.99,,,-99.99,3.480000,,2013-08-08 11:43:00,
2013-08-08 07:52:00,55.0,53.0,-100.00,NE,45,3.0,-999.0,92,-99.99,,,-99.99,3.480000,,2013-08-08 11:52:00,
2013-08-08 08:00:00,57.0,54.0,-100.00,NE,45,2.0,-999.0,89,-99.99,,,-99.99,91.639999,,2013-08-08 12:00:00,
2013-08-08 08:43:00,57.0,54.0,-100.00,NE,45,2.0,-999.0,89,-99.99,,,-99.99,91.639999,,2013-08-08 12:43:00,
2013-08-08 08:53:00,57.0,54.0,-100.00,NE,45,2.0,-999.0,89,-99.99,,,-99.99,91.639999,,2013-08-08 12:53:00,
2013-08-08 09:00:00,61.0,52.0,-100.00,NE,45,4.0,-999.0,72,-99.99,,,-99.99,262.160004,,2013-08-08 13:00:00,
2013-08-08 09:43:00,61.0,52.0,-100.00,NE,45,4.0,-999.0,72,-99.99,,,-99.99,262.160004,,2013-08-08 13:43:00,
2013-08-08 09:53:00,61.0,52.0,-100.00,NE,45,4.0,-999.0,72,-99.99,,,-99.99,262.160004,,2013-08-08 13:53:00,
2013-08-08 10:00:00,63.0,51.0,-100.00,NE,45,4.0,-999.0,64,-99.99,,,-99.99,421.079987,,2013-08-08 14:00:00,
2013-08-08 10:43:00,63.0,51.0,-100.00,NE,45,4.0,-999.0,64,-99.99,,,-99.99,421.079987,,2013-08-08 14:43:00,
2013-08-08 10:53:00,63.0,51.0,-100.00,NE,45,4.0,-999.0,64,-99.99,,,-99.99,421.079987,,2013-08-08 14:53:00,
2013-08-08 11:00:00,66.0,51.0,-100.00,ENE,67,4.0,-999.0,58,-99.99,,,-99.99,602.039978,,2013-08-08 15:00:00,
2013-08-08 11:43:00,66.0,51.0,-100.00,ENE,67,4.0,-999.0,58,-99.99,,,-99.99,602.039978,,2013-08-08 15:43:00,
2013-08-08 11:53:00,66.0,51.0,-100.00,ENE,67,4.0,-999.0,58,-99.99,,,-99.99,602.039978,,2013-08-08 15:53:00,
2013-08-08 12:00:00,69.0,52.0,-100.00,ENE,67,4.0,-999.0,54,-99.99,,,-99.99,722.679993,,2013-08-08 16:00:00,
2013-08-08 12:32:00,69.0,52.0,-100.00,ENE,67,4.0,-999.0,54,-99.99,,,-99.99,722.679993,,2013-08-08 16:32:00,
2013-08-08 12:42:00,69.0,52.0,-100.00,ENE,67,4.0,-999.0,54,-99.99,,,-99.99,722.679993,,2013-08-08 16:42:00,
2013-08-08 12:52:00,69.0,52.0,-100.00,ENE,67,4.0,-999.0,54,-99.99,,,-99.99,722.679993,,2013-08-08 16:52:00,
2013-08-08 13:00:00,71.0,52.0,-100.00,NE,45,5.0,-999.0,50,-99.99,,,-99.99,820.119995,,2013-08-08 17:00:00,
2013-08-08 13:43:00,71.0,52.0,-100.00,NE,45,5.0,-999.0,50,-99.99,,,-99.99,820.119995,,2013-08-08 17:43:00,
2013-08-08 13:52:00,71.0,52.0,-100.00,NE,45,5.0,-999.0,50,-99.99,,,-99.99,820.119995,,2013-08-08 17:52:00,
2013-08-08 14:00:00,72.0,51.0,-100.00,ENE,67,3.0,-999.0,47,-99.99,,,-99.99,832.880005,,2013-08-08 18:00:00,
2013-08-08 14:43:00,72.0,51.0,-100.00,ENE,67,3.0,-999.0,47,-99.99,,,-99.99,832.880005,,2013-08-08 18:43:00,
2013-08-08 14:53:00,72.0,51.0,-100.00,ENE,67,3.0,-999.0,47,-99.99,,,-99.99,832.880005,,2013-08-08 18:53:00,
2013-08-08 15:00:00,74.0,50.0,-100.00,ENE,67,3.0,-999.0,43,-99.99,,,-99.99,854.919983,,2013-08-08 19:00:00,
2013-08-08 15:43:00,74.0,50.0,-100.00,ENE,67,3.0,-999.0,43,-99.99,,,-99.99,854.919983,,2013-08-08 19:43:00,
2013-08-08 15:59:00,74.0,50.0,-100.00,ENE,67,3.0,-999.0,43,-99.99,,,-99.99,854.919983,,2013-08-08 19:59:00,
2013-08-08 16:00:00,75.0,51.0,-100.00,ESE,112,2.0,-999.0,42,-99.99,,,-99.99,799.239990,,2013-08-08 20:00:00,
2013-08-08 16:42:00,75.0,51.0,-100.00,ESE,112,2.0,-999.0,42,-99.99,,,-99.99,799.239990,,2013-08-08 20:42:00,
2013-08-08 16:53:00,75.0,51.0,-100.00,ESE,112,2.0,-999.0,42,-99.99,,,-99.99,799.239990,,2013-08-08 20:53:00,
2013-08-08 17:00:00,77.0,49.0,-100.00,East,90,3.0,-999.0,38,-99.99,,,-99.99,673.960022,,2013-08-08 21:00:00,
2013-08-08 17:46:00,77.0,49.0,-100.00,East,90,3.0,-999.0,38,-99.99,,,-99.99,673.960022,,2013-08-08 21:46:00,
2013-08-08 17:57:00,77.0,49.0,-100.00,East,90,3.0,-999.0,38,-99.99,,,-99.99,673.960022,,2013-08-08 21:57:00,
2013-08-08 18:00:00,77.0,50.0,-100.00,ENE,67,2.0,-999.0,39,-99.99,,,-99.99,516.200012,,2013-08-08 22:00:00,
2013-08-08 18:37:00,77.0,50.0,-100.00,ENE,67,2.0,-999.0,39,-99.99,,,-99.99,516.200012,,2013-08-08 22:37:00,
2013-08-08 18:49:00,77.0,50.0,-100.00,ENE,67,2.0,-999.0,39,-99.99,,,-99.99,516.200012,,2013-08-08 22:49:00,
2013-08-08 18:58:00,77.0,50.0,-100.00,ENE,67,2.0,-999.0,39,-99.99,,,-99.99,516.200012,,2013-08-08 22:58:00,
2013-08-08 19:57:00,74.0,51.0,-100.00,ENE,67,1.0,-999.0,44,-99.99,,,-99.99,361.920013,,2013-08-08 23:57:00,
2013-08-08 20:00:00,73.0,54.0,-100.00,ENE,67,1.0,-999.0,50,-99.99,,,-99.99,178.639999,,2013-08-09 00:00:00,
2013-08-08 20:35:00,73.0,54.0,-100.00,ENE,67,1.0,-999.0,50,-99.99,,,-99.99,178.639999,,2013-08-09 00:35:00,
2013-08-08 20:48:00,73.0,54.0,-100.00,ENE,67,1.0,-999.0,50,-99.99,,,-99.99,178.639999,,2013-08-09 00:48:00,
2013-08-08 20:57:00,73.0,54.0,-100.00,ENE,67,1.0,-999.0,50,-99.99,,,-99.99,178.639999,,2013-08-09 00:57:00,
2013-08-08 21:00:00,70.0,58.0,-100.00,East,90,0.0,-999.0,67,-99.99,,,-99.99,39.439999,,2013-08-09 01:00:00,
2013-08-08 21:47:00,70.0,58.0,-100.00,East,90,0.0,-999.0,67,-99.99,,,-99.99,39.439999,,2013-08-09 01:47:00,
2013-08-08 21:59:00,70.0,58.0,-100.00,East,90,0.0,-999.0,67,-99.99,,,-99.99,39.439999,,2013-08-09 01:59:00,
2013-08-08 22:00:00,60.0,56.0,-100.00,East,90,0.0,-999.0,85,-99.99,,,-99.99,0.000000,,2013-08-09 02:00:00,
2013-08-08 22:47:00,60.0,56.0,-100.00,East,90,0.0,-999.0,85,-99.99,,,-99.99,0.000000,,2013-08-09 02:47:00,
2013-08-08 22:57:00,60.0,56.0,-100.00,East,90,0.0,-999.0,85,-99.99,,,-99.99,0.000000,,2013-08-09 02:57:00,
2013-08-08 23:00:00,58.0,55.0,-100.00,East,90,0.0,-999.0,92,-99.99,,,-99.99,0.000000,,2013-08-09 03:00:00,
2013-08-08 23:47:00,58.0,55.0,-100.00,East,90,0.0,-999.0,92,-99.99,,,-99.99,0.000000,,2013-08-09 03:47:00,
2013-08-08 23:56:00,58.0,55.0,-100.00,East,90,0.0,-999.0,92,-99.99,,,-99.99,0.000000,,2013-08-09 03:56:00,